Skip Page Navigation
NASA JPL Caltech
NASA Logo - Jet Propulsion Laboratory + View the NASA Portal
+ Center for Near-Earth Object Studies
JPL Home Earth Solar System Stars & Galaxies Technology
JPL Solar System Dynamics
BODIES ORBITS EPHEMERIDES TOOLS PHYSICAL DATA DISCOVERY FAQ SITE MAP
JPL Small-Body Database Browser
Search: [ help ]  
16978 (1999 AN4)
Classification: Main-belt Asteroid          SPK-ID: 2016978
Ephemeris | Orbit Diagram | Orbital Elements | Mission Design | Physical Parameters | Discovery Circumstances ]

[ show orbit diagram ]
Orbital Elements at Epoch 2459396.5 (2021-Jul-01.0) TDB
Reference: JPL 33 (heliocentric ecliptic J2000)
 Element Value Uncertainty (1-sigma)   Units 
e .2360205080870357 1.9248e-08  
a 2.340635285085417 1.177e-08 au
q 1.788197355853114 4.746e-08 au
i 22.25992671470225 6.2292e-07 deg
node 316.0051385605958 3.0689e-06 deg
peri 276.8694627425745 3.9585e-06 deg
M 18.99289290701343 7.4555e-06 deg
tp 2459327.493870770306
(2021-Apr-22.99387077)
2.6702e-05 TDB
period 1307.973811273188
3.58
9.8654e-06
2.701e-08
d
yr
n .2752348685403527 2.076e-09 deg/d
Q 2.893073214317721 1.4547e-08 au
  Orbit Determination Parameters
   # obs. used (total)      1447  
   data-arc span      14064 days (38.51 yr)  
   first obs. used      1982-08-16  
   last obs. used      2021-02-16  
   planetary ephem.      DE441  
   SB-pert. ephem.      SB441-N16  
   condition code      0  
   norm. resid. RMS      .46309  
   source      ORB  
   producer      Otto Matic  
   solution date      2021-Jul-08 17:45:56  

Additional Information
 Earth MOID = .919514 au 
 Jupiter MOID = 2.58141 au 
 T_jup = 3.429 
[ show covariance matrix ]

Ephemeris | Orbit Diagram | Orbital Elements | Mission Design | Physical Parameters | Discovery Circumstances ]

Physical Parameter Table
Parameter Symbol Value Units Sigma Reference Notes
absolute magnitude H 14.22   n/a E2021B10  
diameter diameter 3.818 km 0.032 urn:nasa:pds:neowise_diameters_albedos::2.0[mainbelt] (http://adsabs.harvard.edu/abs/2014ApJ...791..121M)  
geometric albedo albedo 0.337   0.021 urn:nasa:pds:neowise_diameters_albedos::2.0[mainbelt] (http://adsabs.harvard.edu/abs/2014ApJ...791..121M)  

16978 (1999 AN4)          Discovered 1999-Jan-11 by Kobayashi, T. at Oizumi
Reference: 20000913/Numbers.arcLast Updated: 2004-04-19
Ephemeris | Orbit Diagram | Orbital Elements | Mission Design | Physical Parameters | Discovery Circumstances ]
ABOUT SSD CREDITS/AWARDS PRIVACY/COPYRIGHT GLOSSARY LINKS
FirstGov 2021-Aug-03 02:30 UT
(server date/time)  
NASA Home Page
Site Manager:   Ryan S. Park
Webmaster  Alan B. Chamberlin